This is the latest recevied weather packets stored in our database for station/object KF7PIZ. If no packets are shown the sender has not sent any weather packets the latest 10 day(s).
| Time | Temp. | Humidity | Pressure | Rain* | Wind** | Luminosity | Snow |
|---|---|---|---|---|---|---|---|
| 1777411725 | 16.67° C | 33% | 1019.8 hPa | 0 mm | - | 248 W/m² | - |
| 1777411420 | 16.67° C | 31% | 1019.8 hPa | 0 mm | - | 184 W/m² | - |
| 1777411121 | 16.67° C | 33% | 1019.7 hPa | 0 mm | - | 170 W/m² | - |
| 1777410820 | 16.11° C | 34% | 1019.8 hPa | 0 mm | - | 160 W/m² | - |
| 1777410520 | 16.67° C | 33% | 1019.5 hPa | 0 mm | - | 143 W/m² | - |
| 1777410219 | 17.22° C | 32% | 1019.7 hPa | 0 mm | - | 144 W/m² | - |
| 1777409914 | 17.22° C | 32% | 1019.8 hPa | 0 mm | - | 143 W/m² | - |
| 1777409610 | 17.22° C | 29% | 1019.5 hPa | 0 mm | - | 130 W/m² | - |
| 1777409305 | 17.78° C | 31% | 1019.6 hPa | 0 mm | - | 125 W/m² | - |
| 1777409002 | 18.33° C | 28% | 1019.7 hPa | 0 mm | - | 123 W/m² | - |
| 1777408699 | 20° C | 27% | 1019.8 hPa | 0 mm | - | 158 W/m² | - |
| 1777408395 | 21.11° C | 28% | 1019.9 hPa | 0 mm | - | 629 W/m² | - |
| 1777408095 | 21.11° C | 28% | 1019.6 hPa | 0 mm | - | 864 W/m² | - |
| 1777407791 | 21.67° C | 26% | 1019.9 hPa | 0 mm | - | 827 W/m² | - |
| 1777407486 | 20.56° C | 29% | 1019.7 hPa | 0 mm | - | 883 W/m² | - |
| 1777407181 | 20° C | 30% | 1019.9 hPa | 0 mm | - | 810 W/m² | - |
| 1777406876 | 20.56° C | 30% | 1019.8 hPa | 0 mm | - | 649 W/m² | - |
| 1777406572 | 20° C | 28% | 1020.1 hPa | 0 mm | - | 669 W/m² | - |
| 1777406268 | 20° C | 29% | 1019.8 hPa | 0 mm | - | 832 W/m² | - |
| 1777405967 | 20.56° C | 29% | 1020.2 hPa | 0 mm | - | 459 W/m² | - |
| 1777405663 | 20.56° C | 34% | 1020.2 hPa | 0 mm | - | 340 W/m² | - |
| 1777405361 | 19.44° C | 31% | 1020.1 hPa | 0 mm | - | 883 W/m² | - |
| 1777405056 | 18.89° C | 33% | 1020.1 hPa | 0 mm | - | 813 W/m² | - |
| 1777404751 | 18.33° C | 38% | 1020.3 hPa | 0 mm | - | 751 W/m² | - |
| 1777404447 | 17.22° C | 35% | 1020.5 hPa | 0 mm | - | 726 W/m² | - |
* Rain latest hour (hover to see other rain measurements)
** Current wind speed in m/s (hover to see current wind gust speed)